Location: Gu�tanj
(46.5431°N, 14.9692°E)
Time: 18:34:17
(UTC+00:00)

COSMO-SKYMED 1 - Pass Details

Date: 03 March 2021
Orbit: 621 x 623 km, 97.9° (Epoch: 15 April)

Event Time Altitude Azimuth Distance (km) Brightness Sun altitude
Rises 17:43:40 0° 7° (N) 2,917 6.0 -10.2°
Reaches altitude 10° 17:45:57 10° 1° (N) 2,005 5.2 -10.6°
Maximum altitude 17:50:05 44° 290° (WNW) 871 3.9 -11.3°
Drops below altitude 10° 17:54:11 10° 218° (SW) 1,989 5.7 -12.0°
Sets 17:56:26 0° 212° (SSW) 2,890 6.4 -12.4°
